STARLINK-3664, 51984

Orbit data source: Space-Track

STARLINK-3664, 51984 is a payload satellite owned by SpaceX/Seattle (US) in LEO that was launched on Wed, 09 Mar 2022 UTC via an FALCON 9 launch vehicle from the Air Force Eastern Test Range (AFETR). Payload-class satellites include a variety of spacecraft equipped with specific instruments for various scientific and technological missions. These include communications satellites like Starlink; space stations such as the ISS; scientific satellites like the Hubble; Earth observation satellites from companies like Planet Labs, Umbra, and HawkEye 360; GPS; miniature CubeSats for education and research; and military/defense satellites.

Loading next visibility...
Identifier
51984, 2022-025AE
Orbit
LEO
Country
Flag of USUS
Related business
Manufacturer
SpaceX/Seattle
Mission
Operational Commercial Communications
Bus & Motor
STARLINK, Unknown motor
Mass
297 kg wet, ~275 kg dry
Launch date (UTC)
2022-03-09 (4 years ago)
Launch vehicle
FALCON 9
Launch site
Air Force Eastern Test Range (AFETR)
Object type
Payload
Rocket body
Debris
Shape & HBR
Box + 1 Pan, 10.1 m
Radar Cross Section
13.562 m², Large (>1 m²)

Expand to show TLE details & history
Last TLE update: 10 hours ago

TLE from 10 hours ago
0 STARLINK-3664
1 51984U 22025AE  25346.94117260  .00000015  00000-0  19027-4 0  9997
2 51984  53.2187  68.6382 0001462  97.0901 263.0258 15.08831861207968
Epoch: 2025-12-12T22:35Z
TLE epoch observation values (Epoch: 2025-12-12T22:35:17.312Z)
Latitude
0.00002°
Longitude
7.9405°
Altitude
540.789 km
Speed
7.593 km/s
True Right ascension
04h 34m 33s
True Declination
0° 00' 00"
Sunlit
Object was in full shadow at epoch
Visualization orbit readout
Latitude
Unknown
Longitude
Unknown
Altitude
Unknown
Speed
Unknown
Apparent Right ascension
Unknown
Apparent Declination
Unknown
Sunlit
N/A
Visualization observer readout
Local Sidereal Time
07:32:45
Azimuth
Unknown
Elevation
Unknown
Doppler factor
Unknown
Orbital elements
Apogee altitude
541.024 km
Perigee altitude
539.002 km
Semi-major axis
6,918.15 km
Eccentricity
0.00015
Inclination
53.2187°
RAAN
68.6382°
Arg. of periapsis
97.0901°
True anomaly
263.00917°
Mean anomaly
263.0258°
Eccentric anomaly
263.01749°
Mean motion
3.77188 °/min
Orbital period
95.44 mins
BSTAR
0.000019027
Loading maneuver chart data...
Computing Atmospheric mass density...
Loading historical data...
Loading historical data...
Loading historical data...
Loading historical data...
Loading historical data...
Loading historical data...
Loading historical data...

Documentation

Showing up to 5 results
|